Location: Driftpile
(55.3500°N, 115.7667°W)
Time: 08:15:26
(UTC+00:00)

N. Korean satellite - Pass Details

Date: 03 December 2021
Orbit: 447 x 490 km, 97.3° (Epoch: 26 January)

Event Time Altitude Azimuth Distance (km) Brightness Sun altitude
Rises 14:39:56 0° 1° (N) 2,484 9.9 -9.2°
Reaches altitude 10° 14:42:42 10° 336° (NNW) 1,597 8.7 -8.8°
Maximum altitude 14:44:35 14° 303° (WNW) 1,350 8.1 -8.6°
Drops below altitude 10° 14:46:28 10° 269° (W) 1,584 8.6 -8.3°
Sets 14:49:11 0° 244° (WSW) 2,449 9.8 -8.0°
